DW5212 Weather Reports


time (UTC)temp
F
wind
direction
speed
knots
gust
knots
rain 1hr
in
rain 24hr
in
rain mn
in
humidity
%
barometer
mb
20260831025503 79 109 0.0 0.0 0.00 0.00 0.00 75 1015.7
20260831025004 79 109 0.0 0.0 0.00 0.00 0.00 76 1015.5
20260831024504 79 109 0.0 0.0 0.00 0.00 0.00 76 1015.5
20260831024004 79 109 0.0 0.0 0.00 0.00 0.00 75 1015.4
20260831023004 78 109 0.0 0.0 0.00 0.00 0.00 74 1015.4
20260831022503 78 109 0.0 0.0 0.00 0.00 0.00 74 1015.2
20260831022004 78 109 0.0 0.0 0.00 0.00 0.00 74 1015.0
20260831021504 78 109 0.0 0.0 0.00 0.00 0.00 74 1014.9
20260831021004 78 109 0.0 0.0 0.00 0.00 0.00 74 1014.9
20260831020503 78 109 0.0 0.0 0.00 0.00 0.00 74 1014.8
20260831020007 79 109 0.0 0.0 0.00 0.00 0.00 73 1014.8
20260831015504 79 109 0.0 0.0 0.00 0.00 0.00 73 1014.8
20260831015004 79 109 0.0 0.0 0.00 0.00 0.00 72 1014.6
20260831014503 80 109 0.0 0.0 0.00 0.00 0.00 71 1014.4
20260831014004 81 109 0.0 0.0 0.00 0.00 0.00 70 1014.4
20260831013503 82 109 0.0 0.0 0.00 0.00 0.00 70 1014.4
20260831013004 82 109 0.0 0.0 0.00 0.00 0.00 71 1014.3
20260831012504 82 109 0.0 0.0 0.00 0.00 0.00 68 1014.3
20260831012004 82 109 0.0 0.0 0.00 0.00 0.00 66 1014.3
20260831011503 83 109 0.0 0.0 0.00 0.00 0.00 67 1014.2
20260831011006 83 109 0.0 0.0 0.00 0.00 0.00 66 1014.2
20260831010504 84 109 0.0 0.0 0.00 0.00 0.00 64 1014.2
20260831010007 84 109 0.0 0.0 0.00 0.00 0.00 64 1014.1
20260831005504 84 109 0.0 0.0 0.00 0.00 0.00 62 1014.1
20260831005004 85 109 0.0 0.0 0.00 0.00 0.00 60 1014.1
20260831004504 85 109 0.0 0.9 0.00 0.00 0.00 58 1014.1
20260831004004 86 109 0.0 0.9 0.00 0.00 0.00 58 1014.0
20260831003503 87 109 0.0 0.0 0.00 0.00 0.00 57 1014.1
20260831003005 87 109 0.0 0.0 0.00 0.00 0.00 56 1013.9
20260831002504 88 109 0.0 0.0 0.00 0.00 0.00 57 1013.9
20260831002004 88 109 0.0 0.0 0.00 0.00 0.00 58 1013.9
20260831001504 89 109 0.0 0.0 0.00 0.00 0.00 56 1013.8
20260831001005 89 109 0.0 0.0 0.00 0.00 0.00 57 1013.9
20260831000503 89 109 0.0 0.9 0.00 0.00 0.00 55 1014.0
20260831000007 90 109 0.0 0.9 0.00 0.00 0.00 52 1013.9
20260830235504 90 109 0.0 0.0 0.00 0.00 0.00 50 1014.0
20260830235004 91 109 0.0 0.9 0.00 0.00 0.00 48 1014.0
20260830234003 92 107 0.0 2.6 0.00 0.00 0.00 47 1014.1
20260830233503 92 116 0.0 0.9 0.00 0.00 0.00 45 1014.0
20260830233004 92 116 0.9 4.3 0.00 0.00 0.00 44 1014.1
20260830232504 93 88 0.9 4.3 0.00 0.00 0.00 44 1014.0
20260830232004 93 100 0.9 3.5 0.00 0.00 0.00 43 1014.0
20260830231504 93 100 0.0 3.5 0.00 0.00 0.00 43 1014.1
20260830231004 93 79 0.0 1.7 0.00 0.00 0.00 44 1014.2
20260830230503 93 96 0.0 2.6 0.00 0.00 0.00 44 1014.2
20260830230006 93 157 0.0 569.2 2.79 4.14 0.00 43
20260830225004 94 126 0.9 4.3 0.00 0.00 0.00 43 1014.2
20260830224504 94 83 0.9 4.3 0.00 0.00 0.00 41 1014.2
20260830224004 94 142 0.9 3.5 0.00 0.00 0.00 42 1014.2
20260830222503 94 160 0.0 0.0 0.00 0.00 0.00 43 1014.3
20260830222004 94 114 0.0 1.7 0.00 0.00 0.00 42 1014.0
20260830221503 95 323 0.9 2.6 0.00 0.00 0.00 43 1014.0
20260830221004 95 126 0.9 3.5 0.00 0.00 0.00 42 1014.1
20260830220503 95 89 0.9 3.5 0.00 0.00 0.00 42 1014.2
20260830220005 95 51 0.9 1.7 0.00 0.00 0.00 41 1014.1
20260830215504 96 186 0.0 1.7 0.00 0.00 0.00 41 1014.1
20260830215004 96 177 0.9 4.3 0.00 0.00 0.00 41 1014.2
20260830214505 96 185 0.9 4.3 0.00 0.00 0.00 41 1014.3
20260830214004 96 107 0.9 2.6 0.00 0.00 0.00 40 1014.5
20260830213504 96 77 0.9 2.6 0.00 0.00 0.00 40 1014.4
20260830213012 96 140 0.9 2.6 0.00 0.00 0.00 41 1014.5
20260830212505 97 162 0.9 2.6 0.00 0.00 0.00 41 1014.5
20260830212004 97 311 1.7 3.5 0.00 0.00 0.00 42 1014.5
20260830211010 97 117 1.7 4.3 0.00 0.00 0.00 42 1014.7
20260830210508 97 125 1.7 5.2 0.00 0.00 0.00 43 1014.8
20260830210010 97 60 0.9 2.6 0.00 0.00 0.00 43 1014.9
20260830205507 97 38 0.9 2.6 0.00 0.00 0.00 43 1014.9
20260830204508 97 244 0.9 2.6 0.00 0.00 0.00 43 1015.0
20260830204009 97 117 0.9 2.6 0.00 0.00 0.00 42 1015.2
20260830203506 97 124 0.9 2.6 0.00 0.00 0.00 42 1015.3
20260830203007 97 135 0.9 3.5 0.00 0.00 0.00 44 1015.3
20260830202506 96 78 0.9 3.5 0.00 0.00 0.00 43 1015.4
20260830202009 97 24 0.9 2.6 0.00 0.00 0.00 43 1015.4
20260830201506 97 134 0.9 3.5 0.00 0.00 0.00 42 1015.4
20260830201008 97 129 0.9 3.5 0.00 0.00 0.00 43 1015.5
20260830200508 97 65 0.9 1.7 0.00 0.00 0.00 44 1015.4
20260830195506 96 314 0.9 2.6 0.00 0.00 0.00 46 1015.6
20260830195007 96 101 0.0 2.6 0.00 0.00 0.00 47 1015.5
20260830194508 95 91 0.0 0.0 0.00 0.00 0.00 47 1015.6
20260830194006 96 92 0.0 0.0 0.00 0.00 0.00 47 1015.7
20260830193007 97 91 0.0 0.9 0.00 0.00 0.00 45 1015.8
20260830192506 98 175 0.9 2.6 0.00 0.00 0.00 43 1015.8
20260830192007 98 181 1.7 5.2 0.00 0.00 0.00 42 1015.9
20260830191507 98 342 1.7 5.2 0.00 0.00 0.00 41 1016.0
20260830191007 98 233 1.7 6.1 0.00 0.00 0.00 43 1016.0
20260830190507 98 107 0.9 2.6 0.00 0.00 0.00 44 1016.0
20260830190008 98 84 1.7 5.2 0.00 0.00 0.00 42 1016.1
20260830185506 99 34 1.7 5.2 0.00 0.00 0.00 42 1016.5
20260830185007 99 22 1.7 3.5 0.00 0.00 0.00 43 1016.5
20260830184507 99 207 0.9 3.5 0.00 0.00 0.00 43 1016.6
20260830184007 98 355 1.7 3.5 0.00 0.00 0.00 44 1016.6
20260830183506 98 179 1.7 3.5 0.00 0.00 0.00 46 1016.8
20260830183007 98 100 1.7 3.5 0.00 0.00 0.00 44 1016.7
20260830182507 98 125 1.7 3.5 0.00 0.00 0.00 44 1016.7
20260830181507 97 107 0.9 3.5 0.00 0.00 0.00 45 1016.8
20260830181008 97 96 0.0 3.5 0.00 0.00 0.00 46 1016.9
20260830180508 96 236 0.0 0.9 0.00 0.00 0.00 46 1016.9
20260830180008 96 55 0.0 1.7 0.00 0.00 0.00 49 1016.9
20260830175506 97 53 0.9 1.7 0.00 0.00 0.00 47 1017.0
20260830175006 97 70 0.9 2.6 0.00 0.00 0.00 47 1017.0
20260830174506 97 73 0.9 2.6 0.00 0.00 0.00 49 1017.0
20260830173506 97 152 1.7 3.5 0.00 0.00 0.00 50 1017.1
20260830173008 96 101 0.9 3.5 0.00 0.00 0.00 49 1017.2
20260830172506 96 171 0.9 3.5 0.00 0.00 0.00 52 1017.3
20260830172007 96 340 0.0 2.6 0.00 0.00 0.00 54 1017.3
20260830171505 96 137 0.9 1.7 0.00 0.00 0.00 53 1017.4
20260830171007 95 206 0.9 1.7 0.00 0.00 0.00 53 1017.5
20260830170508 95 14 0.9 3.5 0.00 0.00 0.00 53 1017.5
20260830170007 94 49 0.9 3.5 0.00 0.00 0.00 53 1017.6
20260830165506 94 316 0.9 2.6 0.00 0.00 0.00 55 1017.6
20260830165008 94 40 0.9 1.7 0.00 0.00 0.00 55 1017.7
20260830164507 94 115 0.9 2.6 0.00 0.00 0.00 57 1017.7
20260830164007 94 171 0.9 3.5 0.00 0.00 0.00 57 1017.7
20260830163007 93 78 0.9 2.6 0.00 0.00 0.00 59 1017.7
20260830162007 93 289 0.9 3.5 0.00 0.00 0.00 58 1017.7
20260830161007 93 90 0.0 2.6 0.00 0.00 0.00 61 1017.6
20260830160011 92 294 0.9 2.6 0.00 0.00 0.00 61 1017.7
20260830155506 92 329 0.9 2.6 0.00 0.00 0.00 63 1017.7
20260830155007 92 112 0.9 1.7 0.00 0.00 0.00 62 1017.7
20260830154508 91 246 0.9 2.6 0.00 0.00 0.00 64 1017.8
20260830154008 91 62 0.0 2.6 0.00 0.00 0.00 63 1017.8
20260830153506 91 40 0.0 0.0 0.00 0.00 0.00 64 1017.9
20260830153007 90 42 0.0 0.0 0.00 0.00 0.00 65 1017.9
20260830152007 89 57 0.0 0.0 0.00 0.00 0.00 68 1017.9
20260830151507 89 63 0.0 0.0 0.00 0.00 0.00 68 1017.9
20260830151007 88 66 0.0 0.0 0.00 0.00 0.00 70 1017.8
20260830150010 87 61 0.0 0.9 0.00 0.00 0.00 72 1017.9
20260830145506 86 61 0.0 1.7 0.00 0.00 0.00 76 1017.8
20260830145007 86 68 0.0 1.7 0.00 0.00 0.00 76 1017.9
20260830144506 85 164 0.0 1.7 0.00 0.00 0.00 79 1017.8
20260830144007 84 164 0.0 1.7 0.00 0.00 0.00 81 1017.9
20260830143506 83 162 0.0 0.0 0.00 0.00 0.00 83 1017.8
20260830143008 81 139 0.0 0.0 0.00 0.00 0.00 85 1017.8
20260830142507 80 139 0.0 0.0 0.00 0.00 0.00 87 1017.8
20260830142007 79 139 0.0 0.0 0.00 0.00 0.00 87 1017.9
20260830141507 78 139 0.0 0.0 0.00 0.00 0.00 89 1017.9
20260830141008 77 139 0.0 0.0 0.00 0.00 0.00 89 1017.8
20260830140007 76 139 0.0 0.0 0.00 0.00 0.00 91 1018.0
20260830135507 75 139 0.0 0.0 0.00 0.00 0.00 92 1017.9
20260830135008 75 138 0.0 0.0 0.00 0.00 0.00 92 1018.0
20260830134007 74 138 0.0 0.0 0.00 0.00 0.00 92 1018.1
20260830133505 74 138 0.0 0.0 0.00 0.00 0.00 92 1018.1
20260830133008 73 138 0.0 0.0 0.00 0.00 0.00 92 1018.1
20260830132506 73 138 0.0 0.0 0.00 0.00 0.00 92 1018.0
20260830132008 73 138 0.0 0.0 0.00 0.00 0.00 92 1017.9
20260830131506 73 138 0.0 0.0 0.00 0.00 0.00 92 1018.0
20260830131006 72 138 0.0 0.0 0.00 0.00 0.00 92 1018.0
20260830130506 72 138 0.0 0.0 0.00 0.00 0.00 91 1017.9
20260830130010 72 138 0.0 0.0 0.00 0.00 0.00 91 1018.0
20260830125506 72 138 0.0 0.0 0.00 0.00 0.00 92 1018.0
20260830125007 72 138 0.0 0.0 0.00 0.00 0.00 91 1017.9
20260830124506 72 138 0.0 0.0 0.00 0.00 0.00 91 1017.8
20260830124007 71 138 0.0 0.0 0.00 0.00 0.00 91 1017.6
20260830123507 71 138 0.0 0.0 0.00 0.00 0.00 90 1017.7
20260830123007 71 138 0.0 0.0 0.00 0.00 0.00 90 1017.6
20260830122507 71 138 0.0 0.0 0.00 0.00 0.00 90 1017.6
20260830122007 71 138 0.0 0.0 0.00 0.00 0.00 90 1017.5
20260830121505 71 138 0.0 0.0 0.00 0.00 0.00 91 1017.4
20260830121006 71 138 0.0 0.0 0.00 0.00 0.00 91 1017.4
20260830120506 71 138 0.0 0.0 0.00 0.00 0.00 91 1017.3
20260830120010 71 138 0.0 0.0 0.00 0.00 0.00 91 1017.4
20260830115506 71 138 0.0 0.0 0.00 0.00 0.00 91 1017.2
20260830115008 71 138 0.0 0.0 0.00 0.00 0.00 91 1017.1
20260830114505 71 138 0.0 0.0 0.00 0.00 0.00 91 1016.9
20260830114006 71 138 0.0 0.0 0.00 0.00 0.00 91 1017.0
20260830113505 71 138 0.0 0.0 0.00 0.00 0.00 90 1016.8
20260830113007 71 138 0.0 0.0 0.00 0.00 0.00 90 1016.8
20260830112506 71 138 0.0 0.0 0.00 0.00 0.00 91 1016.8
20260830112008 71 138 0.0 0.0 0.00 0.00 0.00 90 1016.7
20260830111006 71 138 0.0 0.0 0.00 0.00 0.00 90 1016.6
20260830110506 71 138 0.0 0.0 0.00 0.00 0.00 90 1016.7
20260830110007 71 138 0.0 0.0 0.00 0.00 0.00 90 1016.6
20260830105506 71 138 0.0 0.0 0.00 0.00 0.00 90 1016.7
20260830105006 71 138 0.0 0.0 0.00 0.00 0.00 90 1016.6
20260830104506 71 138 0.0 0.0 0.00 0.00 0.00 89 1016.4
20260830104008 71 138 0.0 0.0 0.00 0.00 0.00 89 1016.4
20260830103506 71 138 0.0 0.0 0.00 0.00 0.00 89 1016.5
20260830103008 72 138 0.0 0.0 0.00 0.00 0.00 88 1016.5
20260830102505 72 138 0.0 0.0 0.00 0.00 0.00 88 1016.3
20260830102006 72 138 0.0 0.0 0.00 0.00 0.00 88 1016.3
20260830101505 72 138 0.0 0.0 0.00 0.00 0.00 88 1016.2
20260830101008 72 138 0.0 0.0 0.00 0.00 0.00 88 1016.3
20260830100507 72 138 0.0 0.0 0.00 0.00 0.00 88 1016.1
20260830100008 72 138 0.0 0.0 0.00 0.00 0.00 88 1016.4
20260830095507 72 138 0.0 0.0 0.00 0.00 0.00 88 1016.3
20260830095006 72 138 0.0 0.0 0.00 0.00 0.00 88 1016.5
20260830094505 72 138 0.0 0.0 0.00 0.00 0.00 88 1016.4
20260830093505 72 138 0.0 0.0 0.00 0.00 0.00 88 1016.6
20260830093008 72 138 0.0 0.0 0.00 0.00 0.00 88 1016.6
20260830092505 72 138 0.0 0.0 0.00 0.00 0.00 88 1016.6
20260830091505 72 138 0.0 0.0 0.00 0.00 0.00 88 1016.3
20260830091006 72 138 0.0 0.0 0.00 0.00 0.00 88 1016.3
20260830090505 72 138 0.0 0.0 0.00 0.00 0.00 88 1016.3
20260830090008 72 138 0.0 0.0 0.00 0.00 0.00 88 1016.2
20260830085505 72 138 0.0 0.0 0.00 0.00 0.00 88 1016.3
20260830085008 72 138 0.0 0.0 0.00 0.00 0.00 88 1016.3
20260830084506 72 138 0.0 0.0 0.00 0.00 0.00 88 1016.3
20260830084006 72 138 0.0 0.0 0.00 0.00 0.00 88 1016.2
20260830083009 72 138 0.0 0.0 0.00 0.00 0.00 88 1016.2
20260830082506 72 138 0.0 0.0 0.00 0.00 0.00 88 1016.2
20260830082006 72 138 0.0 0.0 0.00 0.00 0.00 88 1016.1
20260830081506 72 138 0.0 0.0 0.00 0.00 0.00 87 1016.2
20260830081007 72 138 0.0 0.0 0.00 0.00 0.00 87 1016.2
20260830080506 72 138 0.0 0.0 0.00 0.00 0.00 87 1016.4
20260830080008 73 138 0.0 0.0 0.00 0.00 0.00 86 1016.4
20260830075506 73 138 0.0 0.0 0.00 0.00 0.00 86 1016.4
20260830075007 73 138 0.0 0.0 0.00 0.00 0.00 86 1016.4
20260830074007 74 138 0.0 0.0 0.00 0.00 0.00 84 1016.5
20260830073507 74 138 0.0 0.0 0.00 0.00 0.00 83 1016.5
20260830072507 75 138 0.0 0.0 0.00 0.00 0.00 83 1016.6
20260830072006 75 138 0.0 0.0 0.00 0.00 0.00 82 1016.7
20260830071507 75 138 0.0 0.0 0.00 0.00 0.00 82 1016.6
20260830071007 75 138 0.0 0.0 0.00 0.00 0.00 82 1016.8
20260830070507 75 138 0.0 0.0 0.00 0.00 0.00 82 1016.8
20260830070010 76 138 0.0 0.0 0.00 0.00 0.00 81 1016.9
20260830065506 76 138 0.0 0.0 0.00 0.00 0.00 81 1016.9
20260830065006 76 138 0.0 0.0 0.00 0.00 0.00 81 1016.9
20260830064007 76 138 0.0 0.0 0.00 0.00 0.00 80 1017.1
20260830063506 76 138 0.0 0.0 0.00 0.00 0.00 79 1017.1
20260830062008 77 138 0.0 0.0 0.00 0.00 0.00 79 1016.9
20260830061506 77 138 0.0 0.0 0.00 0.00 0.00 77 1016.8
20260830061007 77 138 0.0 0.0 0.00 0.00 0.00 77 1016.7
20260830060505 77 138 0.0 0.9 0.00 0.00 0.00 77 1016.8
20260830060008 77 138 0.0 1.7 0.00 0.00 0.00 77 1016.8
20260830055008 77 26 0.0 0.9 0.00 0.00 0.00 77 1016.8
20260830054508 77 26 0.0 0.9 0.00 0.00 0.00 77 1016.9
20260830054007 77 13 0.0 1.7 0.00 0.00 0.00 77 1016.9
20260830053507 77 13 0.9 1.7 0.00 0.00 0.00 78 1016.9
20260830053008 77 13 0.9 1.7 0.00 0.00 0.00 78 1016.9
20260830052507 77 360 0.0 0.9 0.00 0.00 0.00 78 1016.8
20260830052006 77 360 0.0 0.9 0.00 0.00 0.00 78 1016.9
20260830051008 77 109 0.0 0.0 0.00 0.00 0.00 78 1016.8
20260830050515 78 109 0.0 0.0 0.00 0.00 0.00 78 1016.8
20260830050014 78 109 0.0 0.0 0.00 0.00 0.00 77 1016.8
20260830045009 78 109 0.0 0.0 0.00 0.00 0.00 78 1016.6
20260830043507 78 109 0.0 0.0 0.00 0.00 0.00 78 1016.6
20260830042508 78 109 0.0 0.0 0.00 0.00 0.00 78 1016.5
20260830042008 78 109 0.0 0.0 0.00 0.00 0.00 78 1016.4
20260830041008 78 109 0.0 0.0 0.00 0.00 0.00 78 1016.3
20260830040507 78 109 0.0 0.0 0.00 0.00 0.00 78 1016.3
20260830040010 78 109 0.0 0.0 0.00 0.00 0.00 78 1016.5
20260830035507 78 109 0.0 0.0 0.00 0.00 0.00 79 1016.4
20260830035008 78 109 0.0 0.0 0.00 0.00 0.00 77 1016.4
20260830034507 79 109 0.0 0.0 0.00 0.00 0.00 77 1016.3
20260830033507 79 109 0.0 0.9 0.00 0.00 0.00 77 1016.3
20260830033010 79 109 0.0 0.9 0.00 0.00 0.00 78 1016.2
20260830032507 79 109 0.0 0.0 0.00 0.00 0.00 78 1016.2
20260830032008 79 109 0.0 0.0 0.00 0.00 0.00 77 1016.2
20260830031508 79 109 0.0 0.0 0.00 0.00 0.00 77 1016.2
20260830031008 79 109 0.0 0.0 0.00 0.00 0.00 78 1016.2
20260830030507 79 109 0.0 0.0 0.00 0.00 0.00 78 1016.1
20260830030010 79 109 0.0 0.0 0.00 0.00 0.00 78 1016.1